Content
SEND FEEDBACK

Daily
Averages
Monthly
Summary
Norway

ANDENES, NORWAY


Home > Europe > Norway
Elevation: 20 feet     Latitude: 69 19N     Longitude: 016 07E

WEATHER
 
SELECT A DAY
Number of Records: 230,739;   Date Range: 7/1/96 - 7/20/14
 
SHARE

PRINT THIS DATA

[ ← Previous Day ]
WEATHER ALMANAC - JANUARY 31, 2013
[ Next Day → ]
[ °C ]   °F
Weather ElementAverageHighLow
Temperature28.8 °F33.8 °F (2:20 pm)23 °F (5:50 am)
Dewpoint23.7 °F28.4 °F (11:50 am)17.6 °F (5:50 am)
Humidity80.9 %93 % (9:20 am)60 % (1:00 am)
Barometer28.77 in28.80 in (10:50 am)28.74 in (7:50 pm)
Wind Speed12.7 mph153.1 mph (3:50 pm)
Weather ElementAverage
Visibility8.1 mi
Wind DirectionSSE (170.5 °)

Weather ElementTotal
Precipitation---
Heating Degree Days36.6 (Base 65)
Averaged from 40 records on January 31, 2013
WEATHER CONDITIONS BREAKOUT
WIND DIRECTION BREAKOUT
WEATHER BY HOUR - JANUARY 31, 2013
[ °C ]   °F
Local TimeTemperatureDewpointHumidityBarometerVisibilityWind DirectionWind SpeedGust SpeedPrecipitationEventsConditions
1:00 AM31.0 °F22.0 °F60 %28.78 in44.0 miNE (50°)17.9 mphPartly Cloudy
1:50 AM32.0 °F21.2 °F64 %28.77 in6.2 miNE (50°)16.1 mphMostly Cloudy
2:50 AM32.0 °F23.0 °F69 %28.77 in6.2 miENE (60°)10.4 mphMostly Cloudy
3:50 AM30.2 °F23.0 °F75 %28.77 in6.2 miENE (70°)6.9 mphMostly Cloudy
4:20 AM28.4 °F21.2 °F74 %28.77 in6.2 miESE (110°)5.8 mphMostly Cloudy
4:50 AM24.8 °F19.4 °F80 %28.77 in6.2 miSSW (210°)4.6 mphMostly Cloudy
5:20 AM24.8 °F19.4 °F80 %28.77 in6.2 miSW (220°)5.8 mphMostly Cloudy
5:50 AM23.0 °F17.6 °F80 %28.77 in6.2 miSSW (210°)5.8 mphMostly Cloudy
6:20 AM23.0 °F19.4 °F86 %28.77 in6.2 miSSW (210°)6.9 mphMostly Cloudy
6:50 AM23.0 °F19.4 °F86 %28.77 in6.2 miSSW (210°)6.9 mphMostly Cloudy
7:00 AM23.0 °F19.0 °F80 %28.78 in40.0 miSSW (210°)6.7 mphPartly Cloudy
7:20 AM23.0 °F19.4 °F86 %28.77 in6.2 miSW (220°)6.9 mphMostly Cloudy
7:50 AM23.0 °F19.4 °F86 %28.77 in6.2 miWSW (240°)5.8 mphMostly Cloudy
8:20 AM28.4 °F23.0 °F80 %28.77 in6.2 miWSW (250°)3.5 mphSnowLight Snow Showers
8:50 AM28.4 °F24.8 °F86 %28.77 in0.9 miVariable1.2 mphSnowSnow Showers
9:20 AM28.4 °F26.6 °F93 %28.77 in6.2 miVariable3.5 mphSnowLight Snow Showers
9:50 AM28.4 °F24.8 °F86 %28.77 in6.2 miSSW (200°)3.5 mphMostly Cloudy
10:20 AM26.6 °F24.8 °F93 %28.77 in6.2 miSW (230°)5.8 mphMostly Cloudy
10:50 AM26.6 °F24.8 °F93 %28.80 in0.9 miVariable3.5 mphSnowSnow Showers
11:20 AM28.4 °F26.6 °F93 %28.80 in2.2 miVariable4.6 mphSnowLight Snow Showers
11:50 AM30.2 °F28.4 °F93 %28.80 in6.2 miWSW (250°)4.6 mphSnowLight Snow Showers
12:20 PM30.2 °F28.4 °F93 %28.80 in6.2 miSW (220°)5.8 mphMostly Cloudy
12:50 PM30.2 °F26.6 °F86 %28.80 in6.2 miSouth (190°)6.9 mphMostly Cloudy
1:00 PM30.0 °F28.0 °F88 %28.80 in14.0 miSouth (190°)6.7 mphSnowLight Snow Showers
2:20 PM33.8 °F24.8 °F70 %28.77 in6.2 miWest (270°)11.5 mphMostly Cloudy
2:50 PM32.0 °F23.0 °F69 %28.77 in6.2 miWSW (250°)10.4 mphMostly Cloudy
3:20 PM32.0 °F26.6 °F80 %28.77 in6.2 miSSW (210°)12.7 mphMostly Cloudy
3:50 PM33.8 °F26.6 °F75 %28.77 in6.2 miWSW (240°)153.1 mphMostly Cloudy
4:20 PM32.0 °F26.6 °F80 %28.77 in6.2 miSSW (210°)9.2 mphMostly Cloudy
4:50 PM30.2 °F24.8 °F80 %28.77 in6.2 miSSW (200°)10.4 mphMostly Cloudy
5:20 PM30.2 °F24.8 °F80 %28.77 in6.2 miSSW (200°)13.8 mphMostly Cloudy
5:50 PM28.4 °F23.0 °F80 %28.77 in6.2 miSSW (200°)11.5 mphScattered Clouds
6:20 PM26.6 °F21.2 °F80 %28.77 in6.2 miSouth (190°)11.5 mphScattered Clouds
6:50 PM26.6 °F23.0 °F86 %28.77 in6.2 miSouth (190°)15.0 mphScattered Clouds
7:00 PM27.0 °F23.0 °F79 %28.77 in19.0 miSouth (190°)13.4 mphPartly Cloudy
7:50 PM30.2 °F26.6 °F86 %28.74 in6.2 miSouth (190°)17.3 mphScattered Clouds
8:50 PM32.0 °F26.6 °F80 %28.77 in6.2 miSouth (190°)15.0 mphMostly Cloudy
9:50 PM32.0 °F24.8 °F75 %28.77 in6.2 miSouth (170°)15.0 mphMostly Cloudy
10:50 PM33.8 °F24.8 °F70 %28.77 in6.2 miSouth (170°)13.8 mphMostly Cloudy
11:50 PM33.8 °F26.6 °F75 %28.77 in6.2 miSSE (150°)18.4 mphMostly Cloudy
Hourly data recorded from ENAN, located miles away from Andenes, Norway







STORIES FROM OUR PARTNERS